Regional Weather Roundup
Issued by NWS State College, PA

Home | Current Version | Previous Version | Graphics & Text | Print | Product List | Glossary Off
Versions: 1 2 3 4 5 6 7 8 9 10 11 12 13 14 15 16 17 18 19 20 21 22 23 24 25 26 27 28 29 30 31 32 33 34 35 36 37 38 39 40 41 42 43 44 45 46 47 48 49 50

000
ASUS41 KCTP 240310
RWRCTP

REGIONAL WEATHER ROUNDUP
NATIONAL WEATHER SERVICE STATE COLLEGE PA
1100 PM EDT THU OCT 23 2014

Note: "fair" indicates few or no clouds below 12,000 feet with no
significant weather and/or obstructions to visibility.

* = STATION THAT DOES NOT REPORT PRECIPITATION /E.G. RAIN...SNOW...ETC/
    THUNDER OR FOG.

PAZ002>004-007>009-013>016-020>023-029>032-240400-
WESTERN PENNSYLVANIA

CITY           SKY/WX    TMP DP  RH WIND       PRES   REMARKS
ERIE           CLEAR     54  45  71 NW8       30.07F
MEADVILLE      CLEAR     44  42  93 W5        30.07F
FRANKLIN*      CLEAR     43  39  87 W9        30.07F
NEW CASTLE       N/A     43  41  93 CALM      30.11S
BEAVER COUNTY  NOT AVBL
BUTLER*        CLEAR     45  39  81 W6        30.09F
PITTSBURGH INT CLEAR     45  42  89 W6        30.09S
PITTSBURGH     CLEAR     49  40  71 W7        30.08S
INDIANA*       CLEAR     46  41  81 W3        30.08F
LATROBE        NOT AVBL
WASHINGTON CO* CLEAR     45  39  81 CALM      30.11F
$$

PAZ004>006-010>012-017>019-024>028-033>037-041-042-045-046-049>053-240400-
CENTRAL PENNSYLVANIA

CITY           SKY/WX    TMP DP  RH WIND       PRES   REMARKS
BRADFORD       CLEAR     43  41  93 NW8       30.02S
DUBOIS         MOCLDY    46  42  86 NW9       30.02S
CLEARFIELD     CLEAR     48  40  73 VRB5      30.01F
JOHNSTOWN      CLEAR     46  38  73 NW16      30.03S
ALTOONA        PTCLDY    51  40  65 VRB7      30.01R
STATE COLLEGE  CLOUDY    52  39  61 NW7       29.98S
WILLIAMSPORT   CLOUDY    58  40  51 NW9       29.92R
SELINSGROVE    CLOUDY    58  40  51 N10       29.92S
FT INDIANTOWN  CLOUDY    58  42  55 VRB6      29.89S
CAPITAL CITY   CLOUDY    61  41  47 N10G18    29.90S
HARRISBURG     MOCLDY    59  41  51 N10       29.89S
YORK           CLOUDY    59  42  53 NW7       29.90S
$$

PAZ038>040-043-044-047-048-054-055-060>062-067>071-240400-
EASTERN PENNSYLVANIA

CITY           SKY/WX    TMP DP  RH WIND       PRES   REMARKS
SCRANTON       LGT RAIN  49  45  86 N13G21    29.89F
MOUNT POCONO   CLOUDY    45  42  89 N14G28    29.83F
ALLENTOWN      CLOUDY    53  43  68 NW12      29.85F
QUAKERTOWN*    CLOUDY    52  45  76 N9        29.86S
READING        CLOUDY    56  44  64 N8        29.87F
LANCASTER      CLOUDY    56  41  57 N9        29.88F
COATESVILLE    MOCLDY    54  45  71 NW9       29.87F
POTTSTOWN      CLOUDY    53  44  71 NW12      29.87S
BLUE BELL      MOCLDY    54  45  71 NW7       29.84S
DOYLESTOWN     CLOUDY    50  44  80 NW9       29.83F
WILLOW GROVE   NOT AVBL
NORTH PHILA    CLOUDY    55  42  61 N17G24    29.84F
PHILADELPHIA   CLOUDY    55  43  63 NW9G20    29.85S
$$



USA.gov is the U.S. government's official web portal to all federal, state and local government web resources and services.